User: anonymous   Login
Location: Laterina
(43.5167°N, 11.7167°E)
Time: 22:33:14
(UTC+00:00)
Language:

MOS 1 - Orbit

View from above orbital plane
View from above orbital plane
View from above satellite
View from above satellite

Ground track
Ground track

The orbit data is extracted from the following two-line orbital elements,

1 17527U 87018A   20328.15993955 -.00000069  00000-0 -15731-4 0  9995
2 17527  99.1367  11.4359 0009313  74.7265 353.4466 14.02566206725376
Epoch (UTC): 23 November 2020 03:50:18
Eccentricity: 0.0009313
inclination: 99.1367°
perigee height: 878 km
apogee height: 891 km
right ascension of ascending node: 11.4359°
argument of perigee: 74.7265°
revolutions per day: 14.02566206
mean anomaly at epoch: 353.4466°
orbit number at epoch: 72537

The dashed part of the orbit path shows where the satellite is in the earth's shadow,  

DLR